MAS8000 WMKK-OEJN

Flight info

Callsign MAS8000
Flight time N/A
Altitude 36000
Route PUGER DCT AVDIN DCT BAC DCT MEMAK DCT SADRI DCT XOKRO DCT BEBOK DCT NUVTI DCT MML DCT DOGBU DCT VASTU DCT 15N069E DCT METIP DCT RIGLO DCT 18N057E DCT LONIV DCT DAVLO DCT BOSUT
Aircraft A388/J-SADE2E3FGHIJ3J4J5M1RWXY/LB1D1

Departure

Time 2026-05-04 06:50
Airport Kuala Lumpur International Airport (WMKK)

Arrival

Time N/A
Airport King Abdulaziz International Airport (OEJN)
Time Latitude Longitude Altitude Speed Heading
2026-05-04 06:36 2.75018 101.71635 78 ft 0 kts 236°
2026-05-04 06:41 2.75031 101.71654 67 ft 4 kts 236°
2026-05-04 06:41 2.75046 101.71676 67 ft 4 kts 236°
2026-05-04 06:41 2.75061 101.71698 67 ft 2 kts 236°
2026-05-04 06:41 2.75073 101.71714 67 ft 4 kts 204°
2026-05-04 06:42 2.75089 101.71711 67 ft 4 kts 125°
2026-05-04 06:42 2.75104 101.71689 67 ft 4 kts 128°
2026-05-04 06:42 2.75114 101.71678 67 ft 3 kts 146°
2026-05-04 06:44 2.75113 101.71678 67 ft 0 kts 146°
2026-05-04 06:46 2.75106 101.71683 67 ft 3 kts 145°
2026-05-04 06:46 2.75082 101.71700 67 ft 6 kts 147°
2026-05-04 06:46 2.75027 101.71735 61 ft 12 kts 147°
2026-05-04 06:46 2.74943 101.71789 83 ft 16 kts 147°
2026-05-04 06:48 2.74851 101.72186 86 ft 11 kts
2026-05-04 06:48 2.74920 101.72152 86 ft 0 kts 326°
2026-05-04 06:49 2.74990 101.72104 87 ft 41 kts 326°
2026-05-04 06:50 2.81168 101.68193 1752 ft 185 kts 326°
2026-05-04 06:51 2.82030 101.67214 1896 ft 195 kts 294°
2026-05-04 06:51 2.82537 101.65924 2032 ft 205 kts 288°
2026-05-04 06:51 2.83006 101.64530 2134 ft 217 kts 288°
2026-05-04 06:51 2.83539 101.63058 2242 ft 236 kts 290°
2026-05-04 06:52 2.84167 101.61475 2449 ft 253 kts 292°
2026-05-04 06:52 2.84862 101.59803 2848 ft 263 kts 292°
2026-05-04 06:52 2.85577 101.58114 3519 ft 265 kts 293°
2026-05-04 06:52 2.86300 101.56412 4137 ft 268 kts 293°
2026-05-04 06:53 2.87031 101.54689 4804 ft 269 kts 293°
2026-05-04 06:53 2.87766 101.52952 5416 ft 273 kts 293°
2026-05-04 06:53 2.88510 101.51195 6034 ft 275 kts 294°
2026-05-04 06:53 2.89259 101.49422 6635 ft 279 kts 294°
2026-05-04 06:54 2.90008 101.47652 7179 ft 281 kts 293°
2026-05-04 06:54 2.90786 101.45812 7759 ft 284 kts 293°
2026-05-04 06:54 2.91558 101.43983 8302 ft 287 kts 293°
2026-05-04 06:54 2.92340 101.42132 8866 ft 290 kts 293°
2026-05-04 06:55 2.93131 101.40261 9427 ft 294 kts 293°
2026-05-04 06:55 2.93931 101.38366 9959 ft 297 kts 293°
2026-05-04 06:55 2.94735 101.36463 10242 ft 309 kts 293°
2026-05-04 06:55 2.95581 101.34461 10387 ft 325 kts 293°
2026-05-04 06:56 2.96477 101.32340 10515 ft 340 kts 293°
2026-05-04 06:57 3.03271 101.16250 13623 ft 370 kts 293°
2026-05-04 06:58 3.04275 101.13873 14055 ft 373 kts 293°
2026-05-04 06:58 3.05286 101.11478 14484 ft 375 kts 293°
2026-05-04 06:58 3.06306 101.09062 14898 ft 378 kts 293°
2026-05-04 06:58 3.07335 101.06625 15329 ft 381 kts 293°
2026-05-04 06:59 3.08368 101.04176 15741 ft 384 kts 293°
2026-05-04 06:59 3.09411 101.01706 16144 ft 387 kts 293°
2026-05-04 06:59 3.10462 100.99215 16553 ft 390 kts 293°
2026-05-04 06:59 3.11520 100.96707 16966 ft 393 kts 293°
2026-05-04 07:01 3.19114 100.78705 19518 ft 410 kts 293°
2026-05-04 07:01 3.20226 100.76066 19848 ft 412 kts 293°
2026-05-04 07:02 3.21341 100.73423 20173 ft 414 kts 293°
2026-05-04 07:02 3.22466 100.70756 20503 ft 416 kts 293°
2026-05-04 07:02 3.23595 100.68078 20815 ft 419 kts 293°
2026-05-04 07:02 3.24727 100.65392 21134 ft 421 kts 293°
2026-05-04 07:03 3.25870 100.62681 21441 ft 423 kts 293°
2026-05-04 07:03 3.27016 100.59962 21767 ft 425 kts 293°
2026-05-04 07:03 3.28167 100.57230 22077 ft 427 kts 293°
2026-05-04 07:03 3.29323 100.54487 22395 ft 429 kts 293°
2026-05-04 07:04 3.30484 100.51733 22705 ft 431 kts 293°
2026-05-04 07:04 3.31656 100.48950 22983 ft 433 kts 293°